Time,TemperatureF,DewpointF,PressureIn,WindDirection,WindDirectionDegrees,WindSpeedMPH,WindSpeedGustMPH,Humidity,HourlyPrecipIn,Conditions,Clouds,dailyrainin,SoftwareType,DateUTC
2013-08-20 00:01:00,70.9,70.0,30.26,NNE,15,0.0,0.0,97,0.00,CLR,,1.26,WeatherDisplay:10.37,2013-08-20 04:01:00,
2013-08-20 00:06:00,70.9,70.0,30.26,NNE,15,0.0,0.0,97,0.00,RA,,0.00,WeatherDisplay:10.37,2013-08-20 04:06:00,
2013-08-20 00:11:00,70.8,69.9,30.26,NNE,15,0.0,0.0,97,0.00,RA,,0.00,WeatherDisplay:10.37,2013-08-20 04:11:00,
2013-08-20 00:16:00,70.8,69.9,30.26,NNE,15,0.0,0.0,97,0.00,CLR,,0.00,WeatherDisplay:10.37,2013-08-20 04:16:00,
2013-08-20 00:21:00,70.7,69.8,30.26,NNE,15,0.0,0.0,97,0.00,CLR,,0.00,WeatherDisplay:10.37,2013-08-20 04:21:00,
2013-08-20 00:26:00,70.7,69.8,30.26,NNE,25,0.0,0.0,97,0.00,CLR,,0.00,WeatherDisplay:10.37,2013-08-20 04:26:00,
2013-08-20 00:31:00,70.7,69.8,30.26,NNE,25,0.0,0.0,97,0.00,CLR,,0.00,WeatherDisplay:10.37,2013-08-20 04:31:00,
2013-08-20 00:36:00,70.7,69.8,30.26,NNE,24,0.0,0.0,97,0.00,CLR,,0.00,WeatherDisplay:10.37,2013-08-20 04:36:00,
2013-08-20 00:41:00,70.7,69.8,30.26,NNE,25,0.0,0.0,97,0.00,CLR,,0.00,WeatherDisplay:10.37,2013-08-20 04:41:00,
2013-08-20 00:46:00,70.7,69.8,30.26,NNE,25,0.0,0.0,97,0.00,CLR,,0.00,WeatherDisplay:10.37,2013-08-20 04:46:00,
2013-08-20 00:51:00,70.7,69.8,30.26,NNE,24,0.0,0.0,97,0.00,BKN,,0.00,WeatherDisplay:10.37,2013-08-20 04:51:00,
2013-08-20 00:56:00,70.7,69.8,30.26,NNE,24,0.0,0.0,97,0.00,BKN,,0.00,WeatherDisplay:10.37,2013-08-20 04:56:00,
2013-08-20 01:01:00,70.8,69.9,30.26,NNE,25,0.0,0.0,97,0.00,BKN,,0.00,WeatherDisplay:10.37,2013-08-20 05:01:00,
2013-08-20 01:06:00,70.8,69.9,30.26,NNE,24,0.0,0.0,97,0.00,OVC,,0.00,WeatherDisplay:10.37,2013-08-20 05:06:00,
2013-08-20 01:11:00,70.8,69.9,30.26,NNE,25,0.0,0.0,97,0.00,OVC,,0.00,WeatherDisplay:10.37,2013-08-20 05:11:00,
2013-08-20 01:16:00,70.8,69.9,30.26,NNE,25,0.0,0.0,97,0.00,OVC,,0.00,WeatherDisplay:10.37,2013-08-20 05:16:00,
2013-08-20 01:21:00,70.7,69.8,30.26,NNE,24,0.2,1.1,97,0.00,OVC,,0.00,WeatherDisplay:10.37,2013-08-20 05:21:00,
2013-08-20 01:26:00,70.8,69.9,30.25,NNE,24,0.0,0.0,97,0.00,OVC,,0.00,WeatherDisplay:10.37,2013-08-20 05:26:00,
2013-08-20 01:31:00,70.8,69.9,30.25,NNE,24,0.0,1.1,97,0.00,OVC,,0.00,WeatherDisplay:10.37,2013-08-20 05:31:00,
2013-08-20 01:36:00,70.7,69.8,30.25,NNE,24,0.0,0.0,97,0.00,OVC,,0.00,WeatherDisplay:10.37,2013-08-20 05:36:00,
2013-08-20 01:41:00,70.8,69.9,30.25,NNE,24,0.0,0.0,97,0.00,OVC,,0.00,WeatherDisplay:10.37,2013-08-20 05:41:00,
2013-08-20 01:46:00,70.8,69.9,30.25,NNE,24,0.0,0.0,97,0.00,OVC,,0.00,WeatherDisplay:10.37,2013-08-20 05:46:00,
2013-08-20 01:51:00,70.7,69.8,30.25,NE,44,0.0,0.0,97,0.00,OVC,,0.00,WeatherDisplay:10.37,2013-08-20 05:51:00,
2013-08-20 01:56:00,70.7,69.8,30.25,NE,44,0.0,0.0,97,0.00,OVC,,0.00,WeatherDisplay:10.37,2013-08-20 05:56:00,
2013-08-20 02:01:00,70.7,69.8,30.25,NE,44,0.0,0.0,97,0.00,OVC,,0.00,WeatherDisplay:10.37,2013-08-20 06:01:00,
2013-08-20 02:06:00,70.6,69.7,30.24,NE,44,0.0,0.0,97,0.00,OVC,,0.00,WeatherDisplay:10.37,2013-08-20 06:06:00,
2013-08-20 02:11:00,70.5,69.6,30.24,NE,44,0.0,0.0,97,0.00,OVC,,0.00,WeatherDisplay:10.37,2013-08-20 06:11:00,
2013-08-20 02:16:00,70.4,69.5,30.24,NE,44,0.0,0.0,97,0.00,OVC,,0.00,WeatherDisplay:10.37,2013-08-20 06:16:00,
2013-08-20 02:21:00,70.4,69.5,30.24,NE,44,0.0,0.0,97,0.00,OVC,,0.00,WeatherDisplay:10.37,2013-08-20 06:21:00,
2013-08-20 02:26:00,70.3,69.4,30.24,NE,44,0.0,0.0,97,0.00,OVC,,0.00,WeatherDisplay:10.37,2013-08-20 06:26:00,
2013-08-20 02:31:00,70.3,69.4,30.24,NNE,28,0.1,1.0,97,0.00,OVC,,0.00,WeatherDisplay:10.37,2013-08-20 06:31:00,
2013-08-20 02:36:00,70.2,69.3,30.24,NE,34,0.2,1.1,97,0.00,OVC,,0.00,WeatherDisplay:10.37,2013-08-20 06:36:00,
2013-08-20 02:41:00,70.1,69.2,30.24,ENE,60,0.0,0.0,97,0.00,OVC,,0.00,WeatherDisplay:10.37,2013-08-20 06:41:00,
2013-08-20 02:46:00,70.1,69.2,30.24,ENE,60,0.0,0.0,97,0.00,OVC,,0.00,WeatherDisplay:10.37,2013-08-20 06:46:00,
2013-08-20 02:51:00,70.0,69.1,30.24,ENE,60,0.0,0.0,97,0.00,OVC,,0.00,WeatherDisplay:10.37,2013-08-20 06:51:00,
2013-08-20 02:56:00,69.9,69.0,30.24,ENE,60,0.0,0.0,97,0.00,OVC,,0.00,WeatherDisplay:10.37,2013-08-20 06:56:00,
2013-08-20 03:01:00,69.8,68.9,30.24,ENE,60,0.0,0.0,97,0.00,OVC,,0.00,WeatherDisplay:10.37,2013-08-20 07:01:00,
2013-08-20 03:06:00,69.7,68.8,30.24,ENE,60,0.0,0.0,97,0.00,FEW,,0.00,WeatherDisplay:10.37,2013-08-20 07:06:00,
2013-08-20 03:11:00,69.7,68.8,30.24,ENE,60,0.0,0.0,97,0.00,FEW,,0.00,WeatherDisplay:10.37,2013-08-20 07:11:00,
2013-08-20 03:16:00,69.6,68.7,30.24,ENE,60,0.0,0.0,97,0.00,FEW,,0.00,WeatherDisplay:10.37,2013-08-20 07:16:00,
2013-08-20 03:21:00,69.5,68.6,30.24,ENE,60,0.0,0.0,97,0.00,FEW,,0.00,WeatherDisplay:10.37,2013-08-20 07:21:00,
2013-08-20 03:26:00,69.5,68.6,30.24,ENE,60,0.0,0.0,97,0.00,FEW,,0.00,WeatherDisplay:10.37,2013-08-20 07:26:00,
2013-08-20 03:31:00,69.5,68.6,30.24,ENE,60,0.0,0.0,97,0.00,FEW,,0.00,WeatherDisplay:10.37,2013-08-20 07:31:00,
2013-08-20 03:36:00,69.5,68.6,30.24,ENE,60,0.0,0.0,97,0.00,FEW,,0.00,WeatherDisplay:10.37,2013-08-20 07:36:00,
2013-08-20 03:41:00,69.6,68.7,30.24,ENE,60,0.0,0.0,97,0.00,FEW,,0.00,WeatherDisplay:10.37,2013-08-20 07:41:00,
2013-08-20 03:46:00,69.7,68.8,30.24,ENE,60,0.0,0.0,97,0.00,FEW,,0.00,WeatherDisplay:10.37,2013-08-20 07:46:00,
2013-08-20 03:51:00,69.7,69.1,30.24,ENE,60,0.0,0.0,98,0.00,FEW,,0.00,WeatherDisplay:10.37,2013-08-20 07:51:00,
2013-08-20 03:56:00,69.8,69.2,30.24,ENE,60,0.0,0.0,98,0.00,FEW,,0.00,WeatherDisplay:10.37,2013-08-20 07:56:00,
2013-08-20 04:01:00,69.8,69.2,30.24,ENE,60,0.0,0.0,98,0.00,FEW,,0.00,WeatherDisplay:10.37,2013-08-20 08:01:00,
2013-08-20 04:06:00,69.9,69.3,30.24,ENE,60,0.0,0.0,98,0.00,FEW,,0.00,WeatherDisplay:10.37,2013-08-20 08:06:00,
2013-08-20 04:11:00,70.0,69.4,30.24,ENE,60,0.0,0.0,98,0.00,FEW,,0.00,WeatherDisplay:10.37,2013-08-20 08:11:00,
2013-08-20 04:16:00,70.1,69.5,30.24,ENE,58,0.0,1.0,98,0.00,FEW,,0.00,WeatherDisplay:10.37,2013-08-20 08:16:00,
2013-08-20 04:21:00,70.1,69.5,30.24,NNE,29,0.0,0.0,98,0.00,CLR,,0.00,WeatherDisplay:10.37,2013-08-20 08:21:00,
2013-08-20 04:26:00,70.2,69.6,30.24,ENE,58,0.0,0.0,98,0.00,CLR,,0.00,WeatherDisplay:10.37,2013-08-20 08:26:00,
2013-08-20 04:31:00,70.2,69.6,30.24,ENE,58,0.0,0.0,98,0.00,CLR,,0.00,WeatherDisplay:10.37,2013-08-20 08:31:00,
2013-08-20 04:36:00,70.3,69.7,30.24,ENE,58,0.1,1.0,98,0.00,CLR,,0.00,WeatherDisplay:10.37,2013-08-20 08:36:00,
2013-08-20 04:41:00,70.3,69.7,30.24,ENE,58,0.0,0.0,98,0.00,CLR,,0.00,WeatherDisplay:10.37,2013-08-20 08:41:00,
2013-08-20 04:46:00,70.4,69.8,30.23,NNE,13,0.0,1.1,98,0.00,CLR,,0.00,WeatherDisplay:10.37,2013-08-20 08:46:00,
2013-08-20 04:51:00,70.4,69.8,30.24,NNE,24,0.0,0.0,98,0.00,CLR,,0.00,WeatherDisplay:10.37,2013-08-20 08:51:00,
2013-08-20 04:56:00,70.4,69.8,30.24,NNE,24,0.0,0.0,98,0.00,CLR,,0.00,WeatherDisplay:10.37,2013-08-20 08:56:00,
2013-08-20 05:01:00,70.4,69.8,30.23,NE,37,0.0,0.0,98,0.00,CLR,,0.00,WeatherDisplay:10.37,2013-08-20 09:01:00,
2013-08-20 05:06:00,70.5,69.9,30.24,NNE,24,0.0,1.1,98,0.00,CLR,,0.00,WeatherDisplay:10.37,2013-08-20 09:06:00,
2013-08-20 05:11:00,70.5,69.9,30.23,NNE,13,0.0,0.0,98,0.00,CLR,,0.00,WeatherDisplay:10.37,2013-08-20 09:11:00,
2013-08-20 05:16:00,70.5,69.9,30.24,North,5,0.6,3.5,98,0.00,CLR,,0.00,WeatherDisplay:10.37,2013-08-20 09:16:00,
2013-08-20 05:21:00,70.6,70.0,30.24,North,5,0.0,0.0,98,0.00,CLR,,0.00,WeatherDisplay:10.37,2013-08-20 09:21:00,
2013-08-20 05:26:00,70.5,69.9,30.24,ENE,59,0.0,0.0,98,0.00,CLR,,0.00,WeatherDisplay:10.37,2013-08-20 09:26:00,
2013-08-20 05:31:00,70.6,70.0,30.24,ENE,59,0.0,0.0,98,0.00,CLR,,0.00,WeatherDisplay:10.37,2013-08-20 09:31:00,
2013-08-20 05:36:00,70.5,69.9,30.24,ENE,59,0.1,1.1,98,0.00,SCT,,0.00,WeatherDisplay:10.37,2013-08-20 09:36:00,
2013-08-20 05:41:00,70.6,70.0,30.24,NE,53,0.0,0.0,98,0.00,SCT,,0.00,WeatherDisplay:10.37,2013-08-20 09:41:00,
2013-08-20 05:46:00,70.6,70.0,30.24,NE,53,0.0,1.1,98,0.00,SCT,,0.00,WeatherDisplay:10.37,2013-08-20 09:46:00,
2013-08-20 05:51:00,70.6,70.0,30.24,NE,53,0.0,1.1,98,0.00,SCT,,0.00,WeatherDisplay:10.37,2013-08-20 09:51:00,
2013-08-20 05:56:00,70.6,70.0,30.24,NE,40,0.3,1.1,98,0.00,SCT,,0.00,WeatherDisplay:10.37,2013-08-20 09:56:00,
2013-08-20 06:01:00,70.6,70.0,30.24,NE,38,0.1,0.0,98,0.00,SCT,,0.00,WeatherDisplay:10.37,2013-08-20 10:01:00,
2013-08-20 06:06:00,70.6,70.0,30.24,North,5,0.7,2.3,98,0.00,CLR,,0.00,WeatherDisplay:10.37,2013-08-20 10:06:00,
2013-08-20 06:11:00,70.5,69.9,30.24,NE,52,0.0,1.0,98,0.00,CLR,,0.00,WeatherDisplay:10.37,2013-08-20 10:11:00,
2013-08-20 06:16:00,70.4,69.8,30.24,ENE,69,0.0,0.0,98,0.00,CLR,,0.00,WeatherDisplay:10.37,2013-08-20 10:16:00,
2013-08-20 06:21:00,70.3,69.4,30.24,North,350,0.1,1.1,97,0.00,OVC,,0.00,WeatherDisplay:10.37,2013-08-20 10:21:00,
2013-08-20 06:26:00,70.3,69.4,30.24,NNE,13,0.0,0.0,97,0.00,OVC,,0.00,WeatherDisplay:10.37,2013-08-20 10:26:00,
2013-08-20 06:31:00,70.2,69.3,30.25,NE,43,0.0,0.0,97,0.00,OVC,,0.00,WeatherDisplay:10.37,2013-08-20 10:31:00,
2013-08-20 06:36:00,70.1,69.2,30.25,ENE,61,0.0,1.0,97,0.00,CLR,,0.00,WeatherDisplay:10.37,2013-08-20 10:36:00,
2013-08-20 06:41:00,70.1,69.2,30.25,ENE,57,0.0,0.0,97,0.00,CLR,,0.00,WeatherDisplay:10.37,2013-08-20 10:41:00,
2013-08-20 06:46:00,70.1,69.2,30.25,ENE,60,0.3,1.0,97,0.00,CLR,,0.00,WeatherDisplay:10.37,2013-08-20 10:46:00,
2013-08-20 06:51:00,70.0,69.1,30.25,ENE,60,0.0,0.0,97,0.00,CLR,,0.00,WeatherDisplay:10.37,2013-08-20 10:51:00,
2013-08-20 06:56:00,70.1,69.5,30.26,ENE,60,0.0,0.0,98,0.00,CLR,,0.00,WeatherDisplay:10.37,2013-08-20 10:56:00,
2013-08-20 07:01:00,70.1,69.5,30.26,ENE,60,0.0,0.0,98,0.00,CLR,,0.00,WeatherDisplay:10.37,2013-08-20 11:01:00,
2013-08-20 07:06:00,70.1,69.5,30.26,ENE,60,0.1,1.1,98,0.00,CLR,,0.00,WeatherDisplay:10.37,2013-08-20 11:06:00,
2013-08-20 07:11:00,70.1,69.5,30.26,ENE,60,0.0,0.0,98,0.00,CLR,,0.00,WeatherDisplay:10.37,2013-08-20 11:11:00,
2013-08-20 07:16:00,70.2,69.6,30.26,ENE,60,0.0,0.0,98,0.00,CLR,,0.00,WeatherDisplay:10.37,2013-08-20 11:16:00,
2013-08-20 07:21:00,70.2,69.6,30.26,ENE,60,0.0,0.0,98,0.00,BKN,,0.00,WeatherDisplay:10.37,2013-08-20 11:21:00,
2013-08-20 07:26:00,70.3,69.7,30.26,ENE,60,0.0,0.0,98,0.00,BKN,,0.00,WeatherDisplay:10.37,2013-08-20 11:26:00,
2013-08-20 07:31:00,70.3,69.7,30.26,ENE,60,0.0,0.0,98,0.00,BKN,,0.00,WeatherDisplay:10.37,2013-08-20 11:31:00,
2013-08-20 07:36:00,70.3,69.7,30.26,ENE,60,0.0,0.0,98,0.00,SCT,,0.00,WeatherDisplay:10.37,2013-08-20 11:36:00,
2013-08-20 07:41:00,70.4,69.8,30.26,ENE,60,0.0,0.0,98,0.00,SCT,,0.00,WeatherDisplay:10.37,2013-08-20 11:41:00,
2013-08-20 07:46:00,70.6,70.0,30.26,ENE,60,0.0,0.0,98,0.00,SCT,,0.00,WeatherDisplay:10.37,2013-08-20 11:46:00,
2013-08-20 07:51:00,70.7,70.1,30.26,ENE,60,0.0,0.0,98,0.00,SCT,,0.00,WeatherDisplay:10.37,2013-08-20 11:51:00,
2013-08-20 07:56:00,70.8,70.2,30.26,ENE,60,0.1,0.0,98,0.00,SCT,,0.00,WeatherDisplay:10.37,2013-08-20 11:56:00,
2013-08-20 08:01:00,70.8,70.2,30.26,ENE,59,1.9,3.5,98,0.00,SCT,,0.00,WeatherDisplay:10.37,2013-08-20 12:01:00,
2013-08-20 08:06:00,70.9,70.3,30.26,NE,55,0.2,1.1,98,0.00,FEW,,0.00,WeatherDisplay:10.37,2013-08-20 12:06:00,
2013-08-20 08:11:00,71.1,70.5,30.27,ENE,61,0.0,1.1,98,0.00,FEW,,0.00,WeatherDisplay:10.37,2013-08-20 12:11:00,
2013-08-20 08:16:00,71.2,70.6,30.27,ENE,66,0.0,2.3,98,0.00,FEW,,0.00,WeatherDisplay:10.37,2013-08-20 12:16:00,
2013-08-20 08:21:00,71.3,70.7,30.27,ENE,58,0.1,2.3,98,0.00,FEW,,0.00,WeatherDisplay:10.37,2013-08-20 12:21:00,
2013-08-20 08:30:00,71.5,70.6,30.27,ENE,76,0.3,2.0,97,0.00,FEW,,0.00,WeatherDisplay:10.37,2013-08-20 12:30:00,
2013-08-20 08:35:00,71.6,70.7,30.27,East,84,0.5,1.0,97,0.00,FEW,,0.00,WeatherDisplay:10.37,2013-08-20 12:35:00,
2013-08-20 08:40:00,71.7,70.8,30.27,East,84,0.0,0.0,97,0.00,FEW,,0.00,WeatherDisplay:10.37,2013-08-20 12:40:00,
2013-08-20 08:45:00,71.8,70.6,30.27,ENE,74,3.3,4.6,96,0.00,FEW,,0.00,WeatherDisplay:10.37,2013-08-20 12:45:00,
2013-08-20 08:50:00,71.9,70.7,30.28,ENE,66,0.6,2.3,96,0.00,FEW,,0.00,WeatherDisplay:10.37,2013-08-20 12:50:00,
2013-08-20 08:55:00,72.0,70.8,30.28,NE,52,0.0,0.0,96,0.00,FEW,,0.00,WeatherDisplay:10.37,2013-08-20 12:55:00,
2013-08-20 09:00:00,72.1,70.9,30.28,NE,52,0.0,0.0,96,0.00,FEW,,0.00,WeatherDisplay:10.37,2013-08-20 13:00:00,
2013-08-20 09:05:00,72.3,70.8,30.28,ESE,107,0.0,1.1,95,0.00,FEW,,0.00,WeatherDisplay:10.37,2013-08-20 13:05:00,
2013-08-20 09:10:00,72.4,70.9,30.28,ENE,76,0.8,2.0,95,0.00,FEW,,0.00,WeatherDisplay:10.37,2013-08-20 13:10:00,
2013-08-20 09:15:00,72.4,70.9,30.28,ESE,116,1.1,2.3,95,0.00,FEW,,0.00,WeatherDisplay:10.37,2013-08-20 13:15:00,
2013-08-20 09:20:00,72.6,71.1,30.28,NNW,331,1.1,2.3,95,0.00,FEW,,0.00,WeatherDisplay:10.37,2013-08-20 13:20:00,
2013-08-20 09:25:00,72.8,71.0,30.29,NE,51,0.9,4.0,94,0.00,FEW,,0.00,WeatherDisplay:10.37,2013-08-20 13:25:00,
2013-08-20 09:30:00,72.9,71.1,30.29,ENE,64,2.4,3.5,94,0.00,FEW,,0.00,WeatherDisplay:10.37,2013-08-20 13:30:00,
2013-08-20 09:35:00,73.0,71.2,30.29,ENE,58,0.2,1.1,94,0.00,FEW,,0.00,WeatherDisplay:10.37,2013-08-20 13:35:00,
2013-08-20 09:40:00,73.3,71.5,30.29,ENE,60,1.2,2.3,94,0.00,FEW,,0.00,WeatherDisplay:10.37,2013-08-20 13:40:00,
2013-08-20 09:45:00,73.6,71.4,30.29,NE,46,1.7,2.3,93,0.00,FEW,,0.00,WeatherDisplay:10.37,2013-08-20 13:45:00,
2013-08-20 09:50:00,73.7,71.5,30.29,NNE,30,0.9,3.5,93,0.00,FEW,,0.00,WeatherDisplay:10.37,2013-08-20 13:50:00,
2013-08-20 09:55:00,73.8,71.3,30.29,East,82,3.2,5.0,92,0.00,FEW,,0.00,WeatherDisplay:10.37,2013-08-20 13:55:00,
2013-08-20 10:00:00,73.9,71.4,30.30,ENE,67,0.3,3.5,92,0.00,FEW,,0.00,WeatherDisplay:10.37,2013-08-20 14:00:00,
2013-08-20 10:05:00,74.0,71.8,30.30,East,82,1.1,3.5,93,0.00,FEW,,0.00,WeatherDisplay:10.37,2013-08-20 14:05:00,
2013-08-20 10:10:00,74.1,71.6,30.30,ENE,68,2.2,3.5,92,0.00,BKN,,0.00,WeatherDisplay:10.37,2013-08-20 14:10:00,
2013-08-20 10:15:00,74.2,71.7,30.30,ESE,113,0.0,0.0,92,0.00,BKN,,0.00,WeatherDisplay:10.37,2013-08-20 14:15:00,
2013-08-20 10:20:00,74.3,71.8,30.30,ESE,109,1.2,2.3,92,0.00,BKN,,0.00,WeatherDisplay:10.37,2013-08-20 14:20:00,
2013-08-20 10:25:00,74.4,71.6,30.30,ENE,76,2.3,4.6,91,0.00,BKN,,0.00,WeatherDisplay:10.37,2013-08-20 14:25:00,
2013-08-20 10:30:00,74.5,72.0,30.30,ENE,59,0.1,2.3,92,0.00,BKN,,0.00,WeatherDisplay:10.37,2013-08-20 14:30:00,
2013-08-20 10:35:00,74.7,71.9,30.31,NE,45,0.0,0.0,91,0.00,BKN,,0.00,WeatherDisplay:10.37,2013-08-20 14:35:00,
2013-08-20 10:40:00,74.9,72.1,30.31,East,87,0.0,0.0,91,0.00,SCT,,0.00,WeatherDisplay:10.37,2013-08-20 14:40:00,
2013-08-20 10:45:00,75.0,72.2,30.31,ENE,65,1.8,4.6,91,0.00,SCT,,0.00,WeatherDisplay:10.37,2013-08-20 14:45:00,
2013-08-20 10:50:00,75.0,72.2,30.31,ESE,123,2.4,3.5,91,0.00,SCT,,0.00,WeatherDisplay:10.37,2013-08-20 14:50:00,
2013-08-20 10:55:00,75.0,72.2,30.31,ESE,103,2.7,3.5,91,0.00,SCT,,0.00,WeatherDisplay:10.37,2013-08-20 14:55:00,
2013-08-20 11:00:00,75.0,71.9,30.31,East,80,1.9,3.5,90,0.00,SCT,,0.00,WeatherDisplay:10.37,2013-08-20 15:00:00,
2013-08-20 11:05:00,75.1,72.0,30.31,ESE,117,2.2,3.5,90,0.00,SCT,,0.00,WeatherDisplay:10.37,2013-08-20 15:05:00,
2013-08-20 11:10:00,75.3,72.2,30.31,East,99,0.0,3.5,90,0.00,CLR,,0.00,WeatherDisplay:10.37,2013-08-20 15:10:00,
2013-08-20 11:15:00,75.6,72.5,30.31,SE,138,0.2,2.3,90,0.00,CLR,,0.00,WeatherDisplay:10.37,2013-08-20 15:15:00,
2013-08-20 11:20:00,75.7,72.6,30.31,East,84,0.0,1.1,90,0.00,CLR,,0.00,WeatherDisplay:10.37,2013-08-20 15:20:00,
2013-08-20 11:25:00,75.8,72.3,30.31,ENE,66,0.3,2.3,89,0.00,CLR,,0.00,WeatherDisplay:10.37,2013-08-20 15:25:00,
2013-08-20 11:30:00,76.1,73.0,30.31,NW,323,1.0,2.3,90,0.00,CLR,,0.00,WeatherDisplay:10.37,2013-08-20 15:30:00,
2013-08-20 11:35:00,76.3,72.8,30.31,ENE,58,0.9,2.3,89,0.00,CLR,,0.00,WeatherDisplay:10.37,2013-08-20 15:35:00,
2013-08-20 11:40:00,76.6,72.8,30.31,East,79,0.1,0.0,88,0.00,BKN,,0.00,WeatherDisplay:10.37,2013-08-20 15:40:00,
2013-08-20 11:45:00,76.8,72.6,30.31,ENE,69,1.8,2.3,87,0.00,BKN,,0.00,WeatherDisplay:10.37,2013-08-20 15:45:00,
2013-08-20 11:50:00,76.7,72.9,30.31,NNE,33,0.3,3.5,88,0.00,BKN,,0.00,WeatherDisplay:10.37,2013-08-20 15:50:00,
2013-08-20 11:55:00,76.7,72.9,30.31,ENE,74,0.0,2.3,88,0.00,BKN,,0.00,WeatherDisplay:10.37,2013-08-20 15:55:00,
2013-08-20 12:00:00,76.9,73.1,30.31,NNE,23,0.6,2.3,88,0.00,BKN,,0.00,WeatherDisplay:10.37,2013-08-20 16:00:00,
2013-08-20 12:05:00,77.1,73.6,30.31,NNE,32,0.0,0.0,89,0.00,BKN,,0.00,WeatherDisplay:10.37,2013-08-20 16:05:00,
2013-08-20 12:10:00,77.2,73.0,30.31,East,84,1.7,0.0,87,0.00,BKN,,0.00,WeatherDisplay:10.37,2013-08-20 16:10:00,
2013-08-20 12:15:00,77.2,73.0,30.31,East,83,0.8,1.1,87,0.00,BKN,,0.00,WeatherDisplay:10.37,2013-08-20 16:15:00,
2013-08-20 12:20:00,77.2,73.0,30.31,ENE,71,1.4,3.5,87,0.00,BKN,,0.00,WeatherDisplay:10.37,2013-08-20 16:20:00,
2013-08-20 12:25:00,77.1,72.9,30.32,NE,44,2.2,3.5,87,0.00,BKN,,0.00,WeatherDisplay:10.37,2013-08-20 16:25:00,
2013-08-20 12:30:00,77.2,73.0,30.31,East,83,0.8,0.0,87,0.00,BKN,,0.00,WeatherDisplay:10.37,2013-08-20 16:30:00,
2013-08-20 12:35:00,77.2,73.0,30.31,East,83,0.8,0.0,87,0.00,BKN,,0.00,WeatherDisplay:10.37,2013-08-20 16:35:00,
2013-08-20 12:40:00,77.5,73.7,30.32,ESE,103,0.9,3.5,88,0.00,BKN,,0.00,WeatherDisplay:10.37,2013-08-20 16:40:00,
2013-08-20 12:45:00,77.2,73.0,30.31,East,83,0.8,0.0,87,0.00,BKN,,0.00,WeatherDisplay:10.37,2013-08-20 16:45:00,
2013-08-20 12:50:00,77.2,73.0,30.31,East,83,0.8,0.0,87,0.00,BKN,,0.00,WeatherDisplay:10.37,2013-08-20 16:50:00,
2013-08-20 12:55:00,78.0,73.5,30.32,ENE,69,0.1,0.0,86,0.00,BKN,,0.00,WeatherDisplay:10.37,2013-08-20 16:55:00,
2013-08-20 13:00:00,78.0,73.5,30.32,NE,53,0.0,0.0,86,0.00,BKN,,0.00,WeatherDisplay:10.37,2013-08-20 17:00:00,
2013-08-20 13:05:00,77.2,73.0,30.31,East,83,0.8,0.0,87,0.00,BKN,,0.00,WeatherDisplay:10.37,2013-08-20 17:05:00,
2013-08-20 13:10:00,78.3,73.4,30.32,NNW,334,0.4,1.1,85,0.00,BKN,,0.00,WeatherDisplay:10.37,2013-08-20 17:10:00,
2013-08-20 13:15:00,78.6,73.7,30.31,NE,40,1.0,1.1,85,0.00,BKN,,0.00,WeatherDisplay:10.37,2013-08-20 17:15:00,
2013-08-20 13:20:00,77.2,73.0,30.31,East,83,0.8,0.0,87,0.00,BKN,,0.00,WeatherDisplay:10.37,2013-08-20 17:20:00,
2013-08-20 13:25:00,78.5,73.6,30.32,NNE,14,0.1,0.0,85,0.00,BKN,,0.00,WeatherDisplay:10.37,2013-08-20 17:25:00,
2013-08-20 13:30:00,78.9,73.3,30.31,NW,325,0.0,1.1,83,0.00,BKN,,0.00,WeatherDisplay:10.37,2013-08-20 17:30:00,
2013-08-20 13:35:00,78.5,73.6,30.32,NNE,14,0.1,0.0,85,0.00,BKN,,0.00,WeatherDisplay:10.37,2013-08-20 17:35:00,
2013-08-20 13:40:00,79.3,74.0,30.31,NNW,339,0.0,1.1,84,0.00,BKN,,0.00,WeatherDisplay:10.37,2013-08-20 17:40:00,
2013-08-20 13:45:00,79.5,74.6,30.31,NW,323,0.0,0.0,85,0.00,BKN,,0.00,WeatherDisplay:10.37,2013-08-20 17:45:00,
2013-08-20 13:50:00,78.5,73.6,30.32,NNE,14,0.1,0.0,85,0.00,BKN,,0.00,WeatherDisplay:10.37,2013-08-20 17:50:00,
2013-08-20 13:55:00,78.5,73.6,30.32,NNE,14,0.1,0.0,85,0.00,BKN,,0.00,WeatherDisplay:10.37,2013-08-20 17:55:00,
2013-08-20 14:00:00,79.2,73.6,30.31,East,98,0.8,1.1,83,0.00,BKN,,0.00,WeatherDisplay:10.37,2013-08-20 18:00:00,
2013-08-20 14:05:00,79.0,73.7,30.31,East,86,1.0,0.0,84,0.00,BKN,,0.00,WeatherDisplay:10.37,2013-08-20 18:05:00,
2013-08-20 14:10:00,78.3,74.1,30.31,ENE,78,0.6,2.0,87,0.00,-RA,,0.00,WeatherDisplay:10.37,2013-08-20 18:10:00,
2013-08-20 14:15:00,78.1,74.6,30.30,ENE,74,0.0,0.0,89,0.00,-RA,,0.00,WeatherDisplay:10.37,2013-08-20 18:15:00,
2013-08-20 14:20:00,78.4,74.2,30.31,ESE,103,0.5,1.1,87,0.00,-RA,,0.00,WeatherDisplay:10.37,2013-08-20 18:20:00,
2013-08-20 14:25:00,78.3,74.8,30.30,ENE,74,0.0,0.0,89,0.00,-RA,,0.00,WeatherDisplay:10.37,2013-08-20 18:25:00,
2013-08-20 14:30:00,78.4,74.2,30.31,ESE,103,0.5,1.1,87,0.00,-RA,,0.00,WeatherDisplay:10.37,2013-08-20 18:30:00,
2013-08-20 14:35:00,78.7,74.5,30.29,ENE,70,0.4,2.3,87,0.00,-RA,,0.00,WeatherDisplay:10.37,2013-08-20 18:35:00,
2013-08-20 14:40:00,78.9,75.0,30.29,East,99,0.1,1.1,88,0.00,-RA,,0.00,WeatherDisplay:10.37,2013-08-20 18:40:00,
2013-08-20 14:45:00,78.4,74.2,30.31,ESE,103,0.5,1.1,87,0.00,-RA,,0.00,WeatherDisplay:10.37,2013-08-20 18:45:00,
2013-08-20 14:50:00,79.0,74.1,30.29,East,80,0.8,2.3,85,0.00,-RA,,0.00,WeatherDisplay:10.37,2013-08-20 18:50:00,
2013-08-20 14:55:00,79.0,74.1,30.29,East,80,0.8,2.3,85,0.00,-RA,,0.00,WeatherDisplay:10.37,2013-08-20 18:55:00,
2013-08-20 15:00:00,79.8,74.5,30.28,East,92,0.4,2.3,84,0.00,-RA,,0.00,WeatherDisplay:10.37,2013-08-20 19:00:00,
2013-08-20 15:05:00,80.3,74.7,30.28,NNW,328,1.0,2.3,83,0.00,BKN,,0.00,WeatherDisplay:10.37,2013-08-20 19:05:00,
2013-08-20 15:10:00,79.0,74.1,30.29,East,80,0.8,2.3,85,0.00,BKN,,0.00,WeatherDisplay:10.37,2013-08-20 19:10:00,
2013-08-20 15:15:00,81.0,74.2,30.28,NE,40,0.7,2.3,80,0.00,BKN,,0.00,WeatherDisplay:10.37,2013-08-20 19:15:00,
2013-08-20 15:20:00,79.0,74.1,30.29,East,80,0.8,2.3,85,0.00,BKN,,0.00,WeatherDisplay:10.37,2013-08-20 19:20:00,
2013-08-20 15:25:00,82.3,75.5,30.27,North,355,1.7,3.5,80,0.00,BKN,,0.00,WeatherDisplay:10.37,2013-08-20 19:25:00,
2013-08-20 15:30:00,82.4,74.8,30.26,NNE,17,0.5,3.5,78,0.00,BKN,,0.00,WeatherDisplay:10.37,2013-08-20 19:30:00,
2013-08-20 15:35:00,79.0,74.1,30.29,East,80,0.8,2.3,85,0.00,BKN,,0.00,WeatherDisplay:10.37,2013-08-20 19:35:00,
2013-08-20 15:40:00,79.0,74.1,30.29,East,80,0.8,2.3,85,0.00,BKN,,0.00,WeatherDisplay:10.37,2013-08-20 19:40:00,
2013-08-20 15:45:00,79.0,74.1,30.29,East,80,0.8,2.3,85,0.00,BKN,,0.00,WeatherDisplay:10.37,2013-08-20 19:45:00,
2013-08-20 15:50:00,82.9,75.3,30.25,ENE,65,0.5,1.1,78,0.00,BKN,,0.00,WeatherDisplay:10.37,2013-08-20 19:50:00,
2013-08-20 15:55:00,83.2,75.2,30.25,East,80,2.2,4.6,77,0.00,BKN,,0.00,WeatherDisplay:10.37,2013-08-20 19:55:00,
2013-08-20 16:00:00,82.9,75.3,30.25,ENE,65,0.5,1.1,78,0.00,BKN,,0.00,WeatherDisplay:10.37,2013-08-20 20:00:00,
2013-08-20 16:05:00,83.1,74.4,30.25,NNW,348,0.6,2.3,75,0.00,BKN,,0.00,WeatherDisplay:10.37,2013-08-20 20:05:00,
2013-08-20 16:10:00,82.9,75.3,30.25,ENE,65,0.5,1.1,78,0.00,BKN,,0.00,WeatherDisplay:10.37,2013-08-20 20:10:00,
2013-08-20 16:15:00,83.6,74.8,30.25,NNW,348,0.2,1.1,75,0.00,BKN,,0.00,WeatherDisplay:10.37,2013-08-20 20:15:00,
2013-08-20 16:20:00,82.9,75.3,30.25,ENE,65,0.5,1.1,78,0.00,BKN,,0.00,WeatherDisplay:10.37,2013-08-20 20:20:00,
2013-08-20 16:25:00,84.0,75.2,30.25,North,10,1.5,3.5,75,0.00,BKN,,0.00,WeatherDisplay:10.37,2013-08-20 20:25:00,
2013-08-20 16:30:00,82.9,75.3,30.25,ENE,65,0.5,1.1,78,0.00,BKN,,0.00,WeatherDisplay:10.37,2013-08-20 20:30:00,
2013-08-20 16:35:00,82.9,75.3,30.25,ENE,65,0.5,1.1,78,0.00,BKN,,0.00,WeatherDisplay:10.37,2013-08-20 20:35:00,
2013-08-20 16:40:00,83.4,74.6,30.25,NW,304,2.1,3.5,75,0.00,BKN,,0.00,WeatherDisplay:10.37,2013-08-20 20:40:00,
2013-08-20 16:45:00,82.9,75.3,30.25,ENE,65,0.5,1.1,78,0.00,BKN,,0.00,WeatherDisplay:10.37,2013-08-20 20:45:00,
2013-08-20 16:50:00,83.4,75.0,30.25,NNW,334,3.1,4.6,76,0.00,BKN,,0.00,WeatherDisplay:10.37,2013-08-20 20:50:00,
2013-08-20 16:55:00,83.8,75.0,30.25,NNW,336,2.6,3.5,75,0.00,BKN,,0.00,WeatherDisplay:10.37,2013-08-20 20:55:00,
2013-08-20 17:00:00,82.9,75.3,30.25,ENE,65,0.5,1.1,78,0.00,BKN,,0.00,WeatherDisplay:10.37,2013-08-20 21:00:00,
2013-08-20 17:05:00,84.2,75.4,30.25,East,80,0.0,0.0,75,0.00,BKN,,0.00,WeatherDisplay:10.37,2013-08-20 21:05:00,
2013-08-20 17:10:00,82.9,75.3,30.25,ENE,65,0.5,1.1,78,0.00,BKN,,0.00,WeatherDisplay:10.37,2013-08-20 21:10:00,
2013-08-20 17:15:00,84.5,75.7,30.25,NW,312,0.3,2.3,75,0.00,BKN,,0.00,WeatherDisplay:10.37,2013-08-20 21:15:00,
2013-08-20 17:20:00,82.9,75.3,30.25,ENE,65,0.5,1.1,78,0.00,BKN,,0.00,WeatherDisplay:10.37,2013-08-20 21:20:00,
2013-08-20 17:25:00,84.5,75.7,30.24,NW,306,2.7,4.0,75,0.00,BKN,,0.00,WeatherDisplay:10.37,2013-08-20 21:25:00,
2013-08-20 17:30:00,82.9,75.3,30.25,ENE,65,0.5,1.1,78,0.00,BKN,,0.00,WeatherDisplay:10.37,2013-08-20 21:30:00,
2013-08-20 17:35:00,84.0,75.6,30.24,ENE,65,0.0,1.1,76,0.00,BKN,,0.00,WeatherDisplay:10.37,2013-08-20 21:35:00,
2013-08-20 17:40:00,83.9,75.5,30.25,ENE,69,0.4,2.3,76,0.00,BKN,,0.00,WeatherDisplay:10.37,2013-08-20 21:40:00,
2013-08-20 17:45:00,82.9,75.3,30.25,ENE,65,0.5,1.1,78,0.00,BKN,,0.00,WeatherDisplay:10.37,2013-08-20 21:45:00,
2013-08-20 17:50:00,83.0,75.4,30.25,ENE,59,0.6,1.1,78,0.00,BKN,,0.00,WeatherDisplay:10.37,2013-08-20 21:50:00,
2013-08-20 17:55:00,82.9,75.3,30.25,ENE,63,0.0,1.1,78,0.00,BKN,,0.00,WeatherDisplay:10.37,2013-08-20 21:55:00,
2013-08-20 18:00:00,82.9,75.3,30.25,ENE,65,0.5,1.1,78,0.00,BKN,,0.00,WeatherDisplay:10.37,2013-08-20 22:00:00,
2013-08-20 18:05:00,82.9,75.3,30.25,ENE,65,0.5,1.1,78,0.00,FEW,,0.00,WeatherDisplay:10.37,2013-08-20 22:05:00,
2013-08-20 18:10:00,82.5,76.4,30.26,East,80,0.0,0.0,82,0.00,FEW,,0.00,WeatherDisplay:10.37,2013-08-20 22:10:00,
2013-08-20 18:15:00,82.2,75.8,30.26,East,88,0.4,1.1,81,0.00,FEW,,0.00,WeatherDisplay:10.37,2013-08-20 22:15:00,
2013-08-20 18:20:00,82.9,75.3,30.25,ENE,65,0.5,1.1,78,0.00,FEW,,0.00,WeatherDisplay:10.37,2013-08-20 22:20:00,
2013-08-20 18:25:00,82.9,75.3,30.25,ENE,65,0.5,1.1,78,0.00,FEW,,0.00,WeatherDisplay:10.37,2013-08-20 22:25:00,
2013-08-20 18:30:00,81.2,75.9,30.26,East,84,0.2,1.1,84,0.00,FEW,,0.00,WeatherDisplay:10.37,2013-08-20 22:30:00,
2013-08-20 18:35:00,81.2,76.3,30.26,East,84,0.0,0.0,85,0.00,FEW,,0.00,WeatherDisplay:10.37,2013-08-20 22:35:00,
2013-08-20 18:40:00,82.9,75.3,30.25,ENE,65,0.5,1.1,78,0.00,FEW,,0.00,WeatherDisplay:10.37,2013-08-20 22:40:00,
2013-08-20 18:45:00,80.9,76.3,30.26,East,84,0.0,0.0,86,0.00,FEW,,0.00,WeatherDisplay:10.37,2013-08-20 22:45:00,
2013-08-20 18:50:00,80.8,76.2,30.26,East,84,0.0,0.0,86,0.00,FEW,,0.00,WeatherDisplay:10.37,2013-08-20 22:50:00,
2013-08-20 18:55:00,82.9,75.3,30.25,ENE,65,0.5,1.1,78,0.00,FEW,,0.00,WeatherDisplay:10.37,2013-08-20 22:55:00,
2013-08-20 19:00:00,80.6,76.4,30.26,East,84,0.0,0.0,87,0.00,FEW,,0.00,WeatherDisplay:10.37,2013-08-20 23:00:00,
2013-08-20 19:05:00,82.9,75.3,30.25,ENE,65,0.5,1.1,78,0.00,FEW,,0.00,WeatherDisplay:10.37,2013-08-20 23:05:00,
2013-08-20 19:10:00,82.9,75.3,30.25,ENE,65,0.5,1.1,78,0.00,FEW,,0.00,WeatherDisplay:10.37,2013-08-20 23:10:00,
2013-08-20 19:15:00,80.3,76.4,30.26,East,84,0.0,0.0,88,0.00,FEW,,0.00,WeatherDisplay:10.37,2013-08-20 23:15:00,
2013-08-20 19:20:00,80.2,76.7,30.26,East,84,0.0,0.0,89,0.00,FEW,,0.00,WeatherDisplay:10.37,2013-08-20 23:20:00,
2013-08-20 19:25:00,82.9,75.3,30.25,ENE,65,0.5,1.1,78,0.00,FEW,,0.00,WeatherDisplay:10.37,2013-08-20 23:25:00,
2013-08-20 19:30:00,82.9,75.3,30.25,ENE,65,0.5,1.1,78,0.00,FEW,,0.00,WeatherDisplay:10.37,2013-08-20 23:30:00,
2013-08-20 19:35:00,79.9,76.7,30.26,NE,49,0.0,1.1,90,0.00,FEW,,0.00,WeatherDisplay:10.37,2013-08-20 23:35:00,
2013-08-20 19:40:00,82.9,75.3,30.25,ENE,65,0.5,1.1,78,0.00,FEW,,0.00,WeatherDisplay:10.37,2013-08-20 23:40:00,
2013-08-20 19:45:00,79.5,76.3,30.27,NNE,19,0.0,0.0,90,0.00,FEW,,0.00,WeatherDisplay:10.37,2013-08-20 23:45:00,
2013-08-20 19:50:00,79.3,76.1,30.27,NNE,33,0.0,0.0,90,0.00,FEW,,0.00,WeatherDisplay:10.37,2013-08-20 23:50:00,
2013-08-20 19:55:00,82.9,75.3,30.25,ENE,65,0.5,1.1,78,0.00,FEW,,0.00,WeatherDisplay:10.37,2013-08-20 23:55:00,
2013-08-20 20:00:00,78.8,75.6,30.26,NE,46,0.0,0.0,90,0.00,FEW,,0.00,WeatherDisplay:10.37,2013-08-21 00:00:00,
2013-08-20 20:05:00,82.9,75.3,30.25,ENE,65,0.5,1.1,78,0.00,CLR,,0.00,WeatherDisplay:10.37,2013-08-21 00:05:00,
2013-08-20 20:10:00,78.3,75.5,30.27,NE,49,0.1,1.1,91,0.00,CLR,,0.00,WeatherDisplay:10.37,2013-08-21 00:10:00,
2013-08-20 20:15:00,82.9,75.3,30.25,ENE,65,0.5,1.1,78,0.00,CLR,,0.00,WeatherDisplay:10.37,2013-08-21 00:15:00,
2013-08-20 20:20:00,77.8,75.0,30.26,NE,41,0.3,2.3,91,0.00,CLR,,0.00,WeatherDisplay:10.37,2013-08-21 00:20:00,
2013-08-20 20:25:00,82.9,75.3,30.25,ENE,65,0.5,1.1,78,0.00,CLR,,0.00,WeatherDisplay:10.37,2013-08-21 00:25:00,
2013-08-20 20:30:00,77.3,74.8,30.26,ENE,76,0.0,1.1,92,0.00,CLR,,0.00,WeatherDisplay:10.37,2013-08-21 00:30:00,
2013-08-20 20:35:00,77.1,74.6,30.27,ENE,76,0.0,0.0,92,0.00,CLR,,0.00,WeatherDisplay:10.37,2013-08-21 00:35:00,
2013-08-20 20:40:00,77.2,74.7,30.27,ENE,76,0.0,0.0,92,0.00,CLR,,0.00,WeatherDisplay:10.37,2013-08-21 00:40:00,
2013-08-20 20:45:00,77.2,74.7,30.27,ENE,76,0.0,0.0,92,0.00,CLR,,0.00,WeatherDisplay:10.37,2013-08-21 00:45:00,
2013-08-20 20:50:00,76.4,74.5,30.28,ENE,71,0.0,0.0,94,0.00,CLR,,0.00,WeatherDisplay:10.37,2013-08-21 00:50:00,
2013-08-20 20:55:00,76.3,74.4,30.28,ENE,71,0.3,1.1,94,0.00,CLR,,0.00,WeatherDisplay:10.37,2013-08-21 00:55:00,
2013-08-20 21:00:00,77.2,74.7,30.27,ENE,76,0.0,0.0,92,0.00,CLR,,0.00,WeatherDisplay:10.37,2013-08-21 01:00:00,
2013-08-20 21:05:00,75.9,74.0,30.28,East,86,1.0,2.3,94,0.00,CLR,,0.00,WeatherDisplay:10.37,2013-08-21 01:05:00,
2013-08-20 21:10:00,77.2,74.7,30.27,ENE,76,0.0,0.0,92,0.00,CLR,,0.00,WeatherDisplay:10.37,2013-08-21 01:10:00,
2013-08-20 21:15:00,75.7,74.2,30.28,ENE,68,1.4,2.3,95,0.00,CLR,,0.00,WeatherDisplay:10.37,2013-08-21 01:15:00,
2013-08-20 21:19:00,75.7,74.2,30.29,ENE,69,0.4,2.3,95,0.00,CLR,,0.00,WeatherDisplay:10.37,2013-08-21 01:19:00,
2013-08-20 21:24:00,77.2,74.7,30.27,ENE,76,0.0,0.0,92,0.00,CLR,,0.00,WeatherDisplay:10.37,2013-08-21 01:24:00,
2013-08-20 21:29:00,75.6,74.1,30.29,ENE,60,0.0,0.0,95,0.00,CLR,,0.00,WeatherDisplay:10.37,2013-08-21 01:29:00,
2013-08-20 21:34:00,75.5,74.0,30.29,ENE,60,0.0,0.0,95,0.00,CLR,,0.00,WeatherDisplay:10.37,2013-08-21 01:34:00,
2013-08-20 21:39:00,77.2,74.7,30.27,ENE,76,0.0,0.0,92,0.00,CLR,,0.00,WeatherDisplay:10.37,2013-08-21 01:39:00,
2013-08-20 21:44:00,77.2,74.7,30.27,ENE,76,0.0,0.0,92,0.00,CLR,,0.00,WeatherDisplay:10.37,2013-08-21 01:44:00,
2013-08-20 21:49:00,75.3,73.8,30.29,ENE,60,0.0,0.0,95,0.01,CLR,,0.01,WeatherDisplay:10.37,2013-08-21 01:49:00,
2013-08-20 21:54:00,75.2,74.0,30.30,North,360,0.0,0.0,96,0.01,CLR,,0.01,WeatherDisplay:10.37,2013-08-21 01:54:00,
2013-08-20 21:59:00,77.2,74.7,30.27,ENE,76,0.0,0.0,92,0.00,CLR,,0.00,WeatherDisplay:10.37,2013-08-21 01:59:00,
2013-08-20 22:04:00,77.2,74.7,30.27,ENE,76,0.0,0.0,92,0.00,CLR,,0.00,WeatherDisplay:10.37,2013-08-21 02:04:00,
2013-08-20 22:09:00,75.1,73.9,30.30,North,360,0.0,0.0,96,0.01,SCT,,0.01,WeatherDisplay:10.37,2013-08-21 02:09:00,
2013-08-20 22:14:00,75.0,73.8,30.31,WSW,243,0.0,0.0,96,0.01,SCT,,0.01,WeatherDisplay:10.37,2013-08-21 02:14:00,
2013-08-20 22:19:00,77.2,74.7,30.27,ENE,76,0.0,0.0,92,0.00,SCT,,0.00,WeatherDisplay:10.37,2013-08-21 02:19:00,
2013-08-20 22:24:00,74.9,73.7,30.30,WSW,243,0.0,0.0,96,0.01,SCT,,0.01,WeatherDisplay:10.37,2013-08-21 02:24:00,
2013-08-20 22:29:00,77.2,74.7,30.27,ENE,76,0.0,0.0,92,0.00,SCT,,0.00,WeatherDisplay:10.37,2013-08-21 02:29:00,
2013-08-20 22:34:00,74.8,73.6,30.31,WSW,244,0.0,0.0,96,0.01,RA,,0.01,WeatherDisplay:10.37,2013-08-21 02:34:00,
2013-08-20 22:39:00,74.8,73.6,30.31,WSW,244,0.0,0.0,96,0.01,RA,,0.01,WeatherDisplay:10.37,2013-08-21 02:39:00,
2013-08-20 22:44:00,74.8,73.6,30.31,WSW,243,0.0,0.0,96,0.00,SCT,,0.01,WeatherDisplay:10.37,2013-08-21 02:44:00,
2013-08-20 22:49:00,74.6,73.4,30.31,WSW,244,0.0,0.0,96,0.01,SCT,,0.01,WeatherDisplay:10.37,2013-08-21 02:49:00,
2013-08-20 22:54:00,74.6,73.4,30.31,WSW,244,0.0,0.0,96,0.01,SCT,,0.01,WeatherDisplay:10.37,2013-08-21 02:54:00,
2013-08-20 22:59:00,74.8,73.6,30.31,WSW,243,0.0,0.0,96,0.00,SCT,,0.01,WeatherDisplay:10.37,2013-08-21 02:59:00,
2013-08-20 23:04:00,74.8,73.6,30.31,WSW,243,0.0,0.0,96,0.00,SCT,,0.01,WeatherDisplay:10.37,2013-08-21 03:04:00,
2013-08-20 23:09:00,74.4,73.2,30.31,WSW,244,0.0,0.0,96,0.00,OVC,,0.01,WeatherDisplay:10.37,2013-08-21 03:09:00,
2013-08-20 23:14:00,74.4,73.2,30.31,WSW,244,0.0,0.0,96,0.01,OVC,,0.01,WeatherDisplay:10.37,2013-08-21 03:14:00,
2013-08-20 23:19:00,74.4,73.2,30.31,WSW,244,0.0,0.0,96,0.01,OVC,,0.01,WeatherDisplay:10.37,2013-08-21 03:19:00,
2013-08-20 23:24:00,74.3,73.4,30.32,ENE,78,0.0,0.0,97,0.01,OVC,,0.01,WeatherDisplay:10.37,2013-08-21 03:24:00,
2013-08-20 23:29:00,74.3,73.4,30.32,ESE,118,0.4,0.0,97,0.00,OVC,,0.01,WeatherDisplay:10.37,2013-08-21 03:29:00,
2013-08-20 23:34:00,74.3,73.4,30.31,East,101,0.9,1.1,97,0.00,OVC,,0.01,WeatherDisplay:10.37,2013-08-21 03:34:00,
2013-08-20 23:39:00,74.2,73.0,30.31,East,88,0.7,3.5,96,0.00,OVC,,0.01,WeatherDisplay:10.37,2013-08-21 03:39:00,
2013-08-20 23:44:00,74.2,73.0,30.31,ENE,68,1.6,1.6,96,0.01,RA,,0.02,WeatherDisplay:10.37,2013-08-21 03:44:00,
2013-08-20 23:49:00,74.2,73.0,30.31,ENE,58,2.3,4.6,96,0.01,RA,,0.02,WeatherDisplay:10.37,2013-08-21 03:49:00,
2013-08-20 23:54:00,74.2,73.0,30.31,ENE,58,2.3,4.6,96,0.01,OVC,,0.02,WeatherDisplay:10.37,2013-08-21 03:54:00,
2013-08-20 23:59:00,74.2,73.0,30.31,ENE,58,2.3,4.6,96,0.01,OVC,,0.02,WeatherDisplay:10.37,2013-08-21 03:59:00,